| time (UTC) | temp F | wind direction | speed MPH | gust MPH | rain 1hr in | rain 24hr in | rain mn in | humidity % | barometer mb |
| 20260506230828 | 56 | 345 | 2.0 | 2.0 | 0.00 | 0.03 | 0.03 | 89 | 1016.5 |
| 20260506230325 | 56 | 339 | 0.0 | 1.0 | 0.00 | 0.03 | 0.03 | 89 | 1016.5 |
| 20260506225820 | 56 | 347 | 1.0 | 1.0 | 0.00 | 0.03 | 0.03 | 89 | 1016.4 |
| 20260506225318 | 56 | 343 | 1.0 | 2.0 | 0.00 | 0.03 | 0.03 | 90 | 1016.5 |
| 20260506224815 | 56 | 347 | 1.0 | 1.0 | 0.00 | 0.03 | 0.03 | 90 | 1016.8 |
| 20260506224312 | 56 | 326 | 3.0 | 3.0 | 0.00 | 0.03 | 0.03 | 90 | 1016.5 |
| 20260506223809 | 56 | 351 | 0.0 | 0.0 | 0.00 | 0.03 | 0.03 | 91 | 1016.7 |
| 20260506223303 | 56 | 340 | 1.0 | 2.0 | 0.00 | 0.03 | 0.03 | 90 | 1016.8 |
| 20260506222800 | 56 | 338 | 2.0 | 2.0 | 0.00 | 0.03 | 0.03 | 90 | 1016.8 |
| 20260506222255 | 56 | 349 | 1.0 | 1.0 | 0.00 | 0.03 | 0.03 | 90 | 1016.7 |
| 20260506221749 | 56 | 348 | 1.0 | 1.0 | 0.00 | 0.03 | 0.03 | 90 | 1017.0 |
| 20260506221246 | 56 | 348 | 0.0 | 0.0 | 0.00 | 0.03 | 0.03 | 90 | 1016.9 |
| 20260506220744 | 56 | 352 | 1.0 | 1.0 | 0.00 | 0.03 | 0.03 | 91 | 1016.8 |
| 20260506220238 | 56 | 351 | 0.0 | 0.0 | 0.00 | 0.03 | 0.03 | 90 | 1017.2 |
| 20260506215736 | 56 | 350 | 0.0 | 0.0 | 0.00 | 0.03 | 0.03 | 91 | 1017.0 |
| 20260506215231 | 56 | 350 | 0.0 | 1.0 | 0.00 | 0.03 | 0.03 | 91 | 1017.1 |
| 20260506214727 | 55 | 351 | 0.0 | 0.0 | 0.00 | 0.03 | 0.03 | 91 | 1017.2 |
| 20260506214225 | 55 | 352 | 0.0 | 0.0 | 0.00 | 0.03 | 0.03 | 91 | 1017.2 |
| 20260506213723 | 55 | 341 | 1.0 | 1.0 | 0.00 | 0.03 | 0.03 | 91 | 1017.3 |
| 20260506213220 | 55 | 351 | 0.0 | 0.0 | 0.00 | 0.03 | 0.03 | 92 | 1017.3 |
| 20260506212717 | 55 | 346 | 1.0 | 2.0 | 0.00 | 0.03 | 0.03 | 92 | 1017.2 |
| 20260506212212 | 55 | 348 | 0.0 | 1.0 | 0.00 | 0.03 | 0.03 | 93 | 1017.3 |
| 20260506211708 | 55 | 348 | 2.0 | 2.0 | 0.00 | 0.03 | 0.03 | 92 | 1017.2 |
| 20260506211204 | 55 | 345 | 0.0 | 1.0 | 0.00 | 0.03 | 0.03 | 93 | 1017.3 |
| 20260506210702 | 55 | 345 | 1.0 | 2.0 | 0.00 | 0.03 | 0.03 | 93 | 1017.4 |
| 20260506210158 | 55 | 331 | 1.0 | 2.0 | 0.00 | 0.03 | 0.03 | 93 | 1017.2 |
| 20260506205655 | 55 | 346 | 1.0 | 1.0 | 0.00 | 0.03 | 0.03 | 93 | 1017.3 |
| 20260506205150 | 55 | 333 | 2.0 | 2.0 | 0.00 | 0.03 | 0.03 | 92 | 1017.2 |
| 20260506204648 | 55 | 341 | 0.0 | 0.0 | 0.00 | 0.03 | 0.03 | 93 | 1017.2 |
| 20260506204145 | 55 | 346 | 1.0 | 1.0 | 0.00 | 0.03 | 0.03 | 93 | 1017.3 |
| 20260506203643 | 55 | 342 | 1.0 | 1.0 | 0.00 | 0.03 | 0.03 | 93 | 1017.3 |
| 20260506203140 | 55 | 345 | 0.0 | 0.0 | 0.00 | 0.03 | 0.03 | 93 | 1017.1 |
| 20260506202638 | 55 | 344 | 1.0 | 2.0 | 0.00 | 0.03 | 0.03 | 93 | 1017.2 |
| 20260506202133 | 55 | 342 | 1.0 | 1.0 | 0.00 | 0.03 | 0.03 | 93 | 1017.4 |
| 20260506201631 | 55 | 346 | 1.0 | 1.0 | 0.00 | 0.03 | 0.03 | 93 | 1017.2 |
| 20260506201127 | 55 | 347 | 1.0 | 1.0 | 0.00 | 0.03 | 0.03 | 93 | 1017.5 |
| 20260506200624 | 55 | 346 | 0.0 | 1.0 | 0.00 | 0.03 | 0.03 | 94 | 1017.5 |
| 20260506200120 | 55 | 351 | 1.0 | 1.0 | 0.00 | 0.03 | 0.03 | 93 | 1017.3 |
| 20260506195617 | 55 | 331 | 2.0 | 2.0 | 0.00 | 0.03 | 0.03 | 93 | 1017.3 |
| 20260506195114 | 55 | 348 | 1.0 | 1.0 | 0.00 | 0.03 | 0.03 | 92 | 1017.1 |
| 20260506194611 | 55 | 331 | 2.0 | 3.0 | 0.00 | 0.03 | 0.03 | 93 | 1017.1 |
| 20260506194107 | 55 | 349 | 0.0 | 1.0 | 0.00 | 0.03 | 0.03 | 93 | 1017.2 |
| 20260506193605 | 55 | 335 | 2.0 | 2.0 | 0.00 | 0.03 | 0.03 | 92 | 1017.3 |
| 20260506193102 | 55 | 346 | 3.0 | 3.0 | 0.00 | 0.03 | 0.03 | 92 | 1017.3 |
| 20260506192559 | 55 | 345 | 1.0 | 2.0 | 0.00 | 0.03 | 0.03 | 93 | 1017.3 |
| 20260506192055 | 55 | 345 | 1.0 | 1.0 | 0.00 | 0.03 | 0.03 | 92 | 1017.1 |
| 20260506191551 | 55 | 350 | 0.0 | 0.0 | 0.00 | 0.03 | 0.03 | 92 | 1017.2 |
| 20260506191047 | 56 | 11 | 0.0 | 0.0 | 0.00 | 0.03 | 0.03 | 94 | 1017.1 |
| 20260506190545 | 55 | 12 | 0.0 | 0.0 | 0.00 | 0.03 | 0.03 | 92 | 1017.2 |
| 20260506190042 | 55 | 343 | 0.0 | 0.0 | 0.00 | 0.03 | 0.03 | 94 | 1017.2 |
| 20260506185539 | 55 | 343 | 0.0 | 0.0 | 0.00 | 0.03 | 0.03 | 94 | 1017.2 |
| 20260506185036 | 55 | 343 | 0.0 | 0.0 | 0.00 | 0.03 | 0.03 | 94 | 1017.1 |
| 20260506184533 | 55 | 343 | 0.0 | 0.0 | 0.00 | 0.03 | 0.03 | 95 | 1017.4 |
| 20260506184030 | 55 | 342 | 0.0 | 0.0 | 0.00 | 0.03 | 0.03 | 95 | 1017.2 |
| 20260506183526 | 55 | 356 | 0.0 | 0.0 | 0.00 | 0.03 | 0.03 | 96 | 1017.0 |
| 20260506183023 | 54 | 356 | 0.0 | 0.0 | 0.00 | 0.03 | 0.03 | 96 | 1017.1 |
| 20260506182520 | 54 | 358 | 0.0 | 0.0 | 0.00 | 0.03 | 0.03 | 96 | 1017.1 |
| 20260506182017 | 54 | 358 | 0.0 | 0.0 | 0.00 | 0.03 | 0.03 | 96 | 1017.1 |
| 20260506181515 | 54 | 356 | 0.0 | 0.0 | 0.00 | 0.03 | 0.03 | 96 | 1016.8 |
| 20260506181012 | 54 | 355 | 0.0 | 1.0 | 0.00 | 0.03 | 0.03 | 96 | 1017.0 |
| 20260506180508 | 54 | 354 | 0.0 | 0.0 | 0.00 | 0.03 | 0.03 | 97 | 1017.0 |
| 20260506180006 | 54 | 348 | 0.0 | 0.0 | 0.00 | 0.03 | 0.03 | 97 | 1016.9 |
| 20260506175501 | 54 | 348 | 0.0 | 0.0 | 0.00 | 0.03 | 0.03 | 96 | 1016.7 |
| 20260506174958 | 54 | 348 | 1.0 | 1.0 | 0.00 | 0.03 | 0.03 | 96 | 1016.8 |
| 20260506174456 | 54 | 349 | 0.0 | 0.0 | 0.00 | 0.03 | 0.03 | 96 | 1016.8 |
| 20260506173952 | 54 | 343 | 1.0 | 1.0 | 0.00 | 0.03 | 0.03 | 96 | 1016.9 |
| 20260506173450 | 54 | 344 | 1.0 | 1.0 | 0.00 | 0.03 | 0.03 | 96 | 1016.7 |
| 20260506172946 | 54 | 346 | 0.0 | 0.0 | 0.00 | 0.03 | 0.03 | 96 | 1016.6 |
| 20260506172444 | 54 | 346 | 0.0 | 0.0 | 0.00 | 0.03 | 0.03 | 96 | 1016.7 |
| 20260506171940 | 54 | 345 | 0.0 | 1.0 | 0.00 | 0.03 | 0.03 | 97 | 1016.7 |
| 20260506171438 | 54 | 349 | 0.0 | 0.0 | 0.00 | 0.03 | 0.03 | 97 | 1016.5 |
| 20260506170935 | 54 | 354 | 0.0 | 0.0 | 0.00 | 0.03 | 0.03 | 97 | 1016.7 |
| 20260506170431 | 54 | 349 | 0.0 | 0.0 | 0.00 | 0.03 | 0.03 | 97 | 1016.3 |
| 20260506165925 | 54 | 349 | 0.0 | 1.0 | 0.00 | 0.03 | 0.03 | 97 | 1016.4 |
| 20260506165423 | 54 | 349 | 0.0 | 0.0 | 0.00 | 0.03 | 0.03 | 98 | 1016.6 |
| 20260506164918 | 54 | 349 | 0.0 | 1.0 | 0.00 | 0.03 | 0.03 | 98 | 1016.7 |
| 20260506164415 | 54 | 355 | 0.0 | 0.0 | 0.00 | 0.03 | 0.03 | 98 | 1016.5 |
| 20260506163913 | 54 | 351 | 0.0 | 0.0 | 0.00 | 0.03 | 0.03 | 99 | 1016.3 |
| 20260506163407 | 54 | 350 | 0.0 | 0.0 | 0.00 | 0.03 | 0.03 | 99 | 1016.4 |
| 20260506162902 | 54 | 348 | 0.0 | 0.0 | 0.00 | 0.03 | 0.03 | 98 | 1016.5 |
| 20260506162400 | 54 | 345 | 0.0 | 0.0 | 0.00 | 0.03 | 0.03 | 98 | 1016.5 |
| 20260506161852 | 53 | 345 | 0.0 | 0.0 | 0.00 | 0.03 | 0.03 | 98 | 1016.2 |
| 20260506161349 | 53 | 347 | 0.0 | 0.0 | 0.00 | 0.03 | 0.03 | 99 | 1016.4 |
| 20260506160842 | 53 | 346 | 0.0 | 0.0 | 0.00 | 0.03 | 0.03 | 99 | 1016.7 |
| 20260506160339 | 53 | 357 | 0.0 | 0.0 | 0.00 | 0.03 | 0.03 | 99 | 1016.5 |
| 20260506155837 | 53 | 357 | 0.0 | 0.0 | 0.00 | 0.03 | 0.03 | 99 | 1016.6 |
| 20260506155333 | 53 | 357 | 0.0 | 0.0 | 0.00 | 0.03 | 0.03 | 99 | 1016.5 |
| 20260506153450 | 53 | 354 | 0.0 | 0.0 | 0.00 | 0.03 | 0.03 | 99 | 1016.6 |
| 20260506152948 | 53 | 356 | 0.0 | 0.0 | 0.00 | 0.03 | 0.03 | 99 | 1016.8 |
| 20260506152445 | 52 | 356 | 0.0 | 0.0 | 0.00 | 0.03 | 0.03 | 99 | 1016.5 |
| 20260506151943 | 53 | 6 | 0.0 | 0.0 | 0.00 | 0.03 | 0.03 | 99 | 1016.6 |
| 20260506151440 | 53 | 6 | 0.0 | 0.0 | 0.00 | 0.03 | 0.03 | 99 | 1016.7 |
| 20260506150938 | 53 | 6 | 0.0 | 0.0 | 0.00 | 0.03 | 0.03 | 99 | 1016.9 |
| 20260506150433 | 53 | 6 | 0.0 | 0.0 | 0.00 | 0.03 | 0.03 | 99 | 1016.7 |
| 20260506145931 | 52 | 6 | 0.0 | 0.0 | 0.07 | 0.03 | 0.03 | 99 | 1016.7 |
| 20260506145427 | 52 | 6 | 0.0 | 0.0 | 0.07 | 0.03 | 0.03 | 99 | 1016.4 |
| 20260506144925 | 52 | 6 | 0.0 | 0.0 | 0.00 | 0.02 | 0.02 | 99 | 1016.4 |
| 20260506144421 | 53 | 6 | 0.0 | 0.0 | 0.00 | 0.02 | 0.02 | 99 | 1016.5 |
| 20260506143920 | 52 | 6 | 0.0 | 0.0 | 0.00 | 0.02 | 0.02 | 99 | 1016.6 |
| 20260506143416 | 52 | 6 | 0.0 | 0.0 | 0.00 | 0.02 | 0.02 | 99 | 1016.2 |
| 20260506142914 | 52 | 6 | 0.0 | 0.0 | 0.00 | 0.02 | 0.02 | 99 | 1016.3 |
| 20260506142412 | 52 | 6 | 0.0 | 0.0 | 0.00 | 0.02 | 0.02 | 99 | 1016.1 |
| 20260506141910 | 52 | 6 | 0.0 | 0.0 | 0.00 | 0.02 | 0.02 | 99 | 1016.1 |
| 20260506141408 | 52 | 6 | 0.0 | 0.0 | 0.00 | 0.02 | 0.02 | 99 | 1016.2 |
| 20260506140906 | 52 | 6 | 0.0 | 0.0 | 0.00 | 0.02 | 0.02 | 99 | 1016.0 |
| 20260506140402 | 52 | 6 | 0.0 | 0.0 | 0.00 | 0.02 | 0.02 | 99 | 1016.1 |
| 20260506135900 | 52 | 6 | 0.0 | 0.0 | 0.00 | 0.02 | 0.02 | 99 | 1016.0 |
| 20260506135356 | 52 | 6 | 0.0 | 0.0 | 0.00 | 0.02 | 0.02 | 99 | 1016.0 |
| 20260506134852 | 52 | 6 | 0.0 | 0.0 | 0.00 | 0.02 | 0.02 | 99 | 1015.8 |
| 20260506134349 | 52 | 6 | 0.0 | 0.0 | 0.00 | 0.02 | 0.02 | 99 | 1015.8 |
| 20260506133846 | 52 | 6 | 0.0 | 0.0 | 0.00 | 0.02 | 0.02 | 99 | 1015.9 |
| 20260506133342 | 52 | 6 | 0.0 | 0.0 | 0.00 | 0.02 | 0.02 | 99 | 1015.5 |
| 20260506132839 | 52 | 6 | 0.0 | 0.0 | 0.00 | 0.02 | 0.02 | 99 | 1015.6 |
| 20260506132336 | 52 | 6 | 0.0 | 0.0 | 0.00 | 0.02 | 0.02 | 99 | 1015.5 |
| 20260506131835 | 52 | 6 | 0.0 | 0.0 | 0.00 | 0.02 | 0.02 | 99 | 1015.6 |
| 20260506131330 | 52 | 6 | 0.0 | 0.0 | 0.00 | 0.02 | 0.02 | 99 | 1015.4 |
| 20260506130828 | 52 | 6 | 0.0 | 0.0 | 0.00 | 0.02 | 0.02 | 99 | 1015.5 |
| 20260506130324 | 52 | 6 | 0.0 | 0.0 | 0.00 | 0.02 | 0.02 | 99 | 1015.6 |
| 20260506125822 | 52 | 6 | 0.0 | 0.0 | 0.00 | 0.02 | 0.02 | 99 | 1015.6 |
| 20260506125320 | 52 | 6 | 0.0 | 0.0 | 0.00 | 0.02 | 0.02 | 99 | 1015.7 |
| 20260506124818 | 52 | 6 | 0.0 | 0.0 | 0.00 | 0.02 | 0.02 | 99 | 1015.5 |
| 20260506124315 | 52 | 6 | 0.0 | 0.0 | 0.00 | 0.02 | 0.02 | 99 | 1015.6 |
| 20260506123813 | 52 | 6 | 0.0 | 0.0 | 0.00 | 0.02 | 0.02 | 99 | 1015.6 |
| 20260506123311 | 52 | 6 | 0.0 | 0.0 | 0.00 | 0.02 | 0.02 | 99 | 1015.6 |
| 20260506122808 | 52 | 6 | 0.0 | 0.0 | 0.00 | 0.02 | 0.02 | 99 | 1015.4 |
| 20260506122306 | 52 | 6 | 0.0 | 0.0 | 0.00 | 0.02 | 0.02 | 99 | 1015.6 |
| 20260506121803 | 52 | 6 | 0.0 | 0.0 | 0.05 | 0.02 | 0.02 | 99 | 1015.4 |
| 20260506121259 | 52 | 6 | 0.0 | 0.0 | 0.05 | 0.02 | 0.02 | 99 | 1015.2 |
| 20260506120757 | 52 | 6 | 0.0 | 0.0 | 0.05 | 0.02 | 0.02 | 99 | 1015.2 |
| 20260506120254 | 52 | 6 | 0.0 | 0.0 | 0.00 | 0.01 | 0.01 | 99 | 1015.2 |
| 20260506115752 | 52 | 6 | 0.0 | 0.0 | 0.00 | 0.01 | 0.01 | 99 | 1015.1 |
| 20260506115250 | 52 | 6 | 0.0 | 0.0 | 0.00 | 0.01 | 0.01 | 99 | 1015.3 |
| 20260506114747 | 52 | 6 | 0.0 | 0.0 | 0.00 | 0.01 | 0.01 | 99 | 1015.3 |
| 20260506114245 | 52 | 6 | 0.0 | 0.0 | 0.00 | 0.01 | 0.01 | 99 | 1015.2 |
| 20260506113743 | 52 | 6 | 0.0 | 0.0 | 0.00 | 0.01 | 0.01 | 99 | 1015.2 |
| 20260506113240 | 52 | 6 | 0.0 | 0.0 | 0.00 | 0.01 | 0.01 | 99 | 1015.0 |
| 20260506112736 | 53 | 6 | 0.0 | 0.0 | 0.00 | 0.01 | 0.01 | 99 | 1015.1 |
| 20260506112234 | 53 | 6 | 0.0 | 0.0 | 0.00 | 0.01 | 0.01 | 99 | 1015.1 |
| 20260506111731 | 53 | 6 | 0.0 | 0.0 | 0.00 | 0.01 | 0.01 | 99 | 1015.2 |
| 20260506111230 | 53 | 6 | 0.0 | 0.0 | 0.07 | 0.01 | 0.01 | 99 | 1014.8 |
| 20260506110726 | 53 | 6 | 0.0 | 0.0 | 0.07 | 0.01 | 0.01 | 99 | 1015.0 |
| 20260506110224 | 53 | 6 | 0.0 | 0.0 | 0.00 | 0.00 | 0.00 | 99 | 1015.0 |
| 20260506105720 | 53 | 6 | 0.0 | 0.0 | 0.00 | 0.00 | 0.00 | 99 | 1014.7 |
| 20260506105217 | 53 | 6 | 0.0 | 0.0 | 0.00 | 0.00 | 0.00 | 99 | 1014.7 |
| 20260506104715 | 53 | 6 | 0.0 | 0.0 | 0.00 | 0.00 | 0.00 | 99 | 1014.8 |
| 20260506104213 | 53 | 6 | 0.0 | 0.0 | 0.00 | 0.00 | 0.00 | 99 | 1014.8 |
| 20260506103709 | 53 | 6 | 0.0 | 0.0 | 0.00 | 0.00 | 0.00 | 99 | 1014.6 |
| 20260506103206 | 53 | 6 | 0.0 | 0.0 | 0.00 | 0.00 | 0.00 | 99 | 1014.6 |
| 20260506102705 | 53 | 6 | 0.0 | 0.0 | 0.00 | 0.00 | 0.00 | 99 | 1014.5 |
| 20260506102202 | 53 | 6 | 0.0 | 0.0 | 0.00 | 0.00 | 0.00 | 99 | 1014.4 |
| 20260506101659 | 53 | 6 | 0.0 | 0.0 | 0.00 | 0.00 | 0.00 | 99 | 1014.1 |
| 20260506101155 | 53 | 6 | 0.0 | 0.0 | 0.00 | 0.00 | 0.00 | 99 | 1014.1 |
| 20260506100654 | 53 | 6 | 0.0 | 0.0 | 0.00 | 0.00 | 0.00 | 99 | 1014.2 |
| 20260506100151 | 53 | 6 | 0.0 | 0.0 | 0.00 | 0.00 | 0.00 | 99 | 1014.3 |
| 20260506095650 | 53 | 6 | 0.0 | 0.0 | 0.00 | 0.00 | 0.00 | 99 | 1014.3 |
| 20260506095146 | 53 | 6 | 0.0 | 0.0 | 0.00 | 0.00 | 0.00 | 99 | 1014.2 |
| 20260506094643 | 53 | 6 | 0.0 | 0.0 | 0.00 | 0.00 | 0.00 | 99 | 1014.1 |
| 20260506094141 | 53 | 6 | 0.0 | 0.0 | 0.00 | 0.00 | 0.00 | 99 | 1014.2 |
| 20260506093640 | 53 | 6 | 0.0 | 0.0 | 0.00 | 0.00 | 0.00 | 99 | 1014.1 |
| 20260506093136 | 53 | 6 | 0.0 | 0.0 | 0.00 | 0.00 | 0.00 | 99 | 1014.2 |
| 20260506092634 | 53 | 6 | 0.0 | 0.0 | 0.00 | 0.00 | 0.00 | 99 | 1014.0 |
| 20260506092131 | 53 | 6 | 0.0 | 0.0 | 0.00 | 0.00 | 0.00 | 99 | 1014.0 |
| 20260506091629 | 53 | 6 | 0.0 | 0.0 | 0.00 | 0.00 | 0.00 | 99 | 1014.0 |
| 20260506091126 | 53 | 6 | 0.0 | 0.0 | 0.00 | 0.00 | 0.00 | 99 | 1014.0 |
| 20260506090624 | 53 | 6 | 0.0 | 0.0 | 0.00 | 0.00 | 0.00 | 99 | 1014.0 |
| 20260506090120 | 53 | 6 | 0.0 | 0.0 | 0.00 | 0.00 | 0.00 | 99 | 1014.1 |
| 20260506085617 | 53 | 6 | 0.0 | 0.0 | 0.00 | 0.00 | 0.00 | 99 | 1013.9 |
| 20260506085114 | 53 | 6 | 0.0 | 0.0 | 0.00 | 0.00 | 0.00 | 99 | 1014.2 |
| 20260506084610 | 53 | 6 | 0.0 | 0.0 | 0.00 | 0.00 | 0.00 | 99 | 1014.0 |
| 20260506084107 | 53 | 6 | 0.0 | 0.0 | 0.00 | 0.00 | 0.00 | 99 | 1014.0 |
| 20260506083604 | 53 | 6 | 0.0 | 0.0 | 0.00 | 0.00 | 0.00 | 99 | 1013.9 |
| 20260506083102 | 53 | 6 | 0.0 | 0.0 | 0.00 | 0.00 | 0.00 | 99 | 1013.7 |
| 20260506082558 | 53 | 6 | 0.0 | 0.0 | 0.00 | 0.00 | 0.00 | 99 | 1014.0 |
| 20260506082054 | 53 | 6 | 0.0 | 0.0 | 0.00 | 0.00 | 0.00 | 99 | 1014.0 |
| 20260506081552 | 53 | 6 | 0.0 | 0.0 | 0.00 | 0.00 | 0.00 | 99 | 1013.9 |
| 20260506081049 | 53 | 6 | 0.0 | 0.0 | 0.00 | 0.00 | 0.00 | 99 | 1013.8 |
| 20260506080547 | 53 | 6 | 0.0 | 0.0 | 0.00 | 0.00 | 0.00 | 99 | 1013.7 |
| 20260506073027 | 53 | 6 | 0.0 | 0.0 | 0.00 | 0.00 | 0.00 | 99 | 1013.4 |
| 20260506072524 | 53 | 6 | 0.0 | 0.0 | 0.00 | 0.00 | 0.00 | 99 | 1013.3 |
| 20260506072022 | 53 | 6 | 0.0 | 0.0 | 0.00 | 0.00 | 0.00 | 99 | 1013.5 |
| 20260506071520 | 53 | 6 | 0.0 | 0.0 | 0.00 | 0.00 | 0.00 | 99 | 1013.4 |
| 20260506071017 | 53 | 6 | 0.0 | 0.0 | 0.00 | 0.00 | 0.00 | 99 | 1013.3 |
| 20260506070514 | 53 | 6 | 0.0 | 0.0 | 0.00 | 0.00 | 0.00 | 99 | 1013.3 |
| 20260506062451 | 53 | 6 | 0.0 | 0.0 | 0.00 | 0.00 | 0.00 | 99 | 1013.1 |
| 20260506061947 | 53 | 6 | 0.0 | 0.0 | 0.00 | 0.00 | 0.00 | 99 | 1013.2 |
| 20260506061444 | 53 | 6 | 0.0 | 0.0 | 0.00 | 0.00 | 0.00 | 99 | 1013.1 |
| 20260506060942 | 53 | 6 | 0.0 | 0.0 | 0.00 | 0.00 | 0.00 | 99 | 1013.1 |
| 20260506060440 | 53 | 6 | 0.0 | 0.0 | 0.00 | 0.00 | 0.00 | 99 | 1013.1 |
| 20260506051412 | 54 | 5 | 0.0 | 0.0 | 0.00 | 0.00 | 0.00 | 98 | 1013.0 |
| 20260506050909 | 54 | 5 | 0.0 | 0.0 | 0.00 | 0.00 | 0.00 | 98 | 1013.1 |
| 20260506050406 | 54 | 5 | 0.0 | 0.0 | 0.00 | 0.00 | 0.00 | 98 | 1012.9 |
| 20260506044857 | 54 | 5 | 0.0 | 0.0 | 0.00 | 0.00 | 0.00 | 97 | 1012.8 |
| 20260506044355 | 54 | 5 | 0.0 | 0.0 | 0.00 | 0.00 | 0.00 | 97 | 1012.8 |
| 20260506043851 | 54 | 5 | 0.0 | 0.0 | 0.00 | 0.00 | 0.00 | 97 | 1012.8 |
| 20260506043348 | 54 | 5 | 0.0 | 0.0 | 0.00 | 0.00 | 0.00 | 97 | 1012.7 |
| 20260506042847 | 54 | 4 | 0.0 | 0.0 | 0.00 | 0.00 | 0.00 | 97 | 1012.5 |
| 20260506042346 | 54 | 4 | 0.0 | 0.0 | 0.00 | 0.00 | 0.00 | 97 | 1012.6 |
| 20260506041844 | 54 | 4 | 0.0 | 0.0 | 0.00 | 0.00 | 0.00 | 97 | 1012.6 |
| 20260506041341 | 54 | 4 | 0.0 | 0.0 | 0.00 | 0.00 | 0.00 | 96 | 1012.5 |
| 20260506040837 | 54 | 4 | 0.0 | 0.0 | 0.00 | 0.00 | 0.00 | 96 | 1012.4 |
| 20260506040335 | 54 | 4 | 0.0 | 0.0 | 0.00 | 0.00 | 0.00 | 96 | 1012.4 |
| 20260506035831 | 54 | 4 | 0.0 | 0.0 | 0.00 | 0.00 | 0.00 | 96 | 1012.3 |
| 20260506035329 | 54 | 4 | 0.0 | 0.0 | 0.00 | 0.00 | 0.00 | 96 | 1012.3 |
| 20260506034826 | 54 | 4 | 0.0 | 0.0 | 0.00 | 0.00 | 0.00 | 96 | 1012.1 |
| 20260506034323 | 54 | 3 | 0.0 | 0.0 | 0.00 | 0.00 | 0.00 | 96 | 1012.1 |
| 20260506033820 | 54 | 345 | 0.0 | 0.0 | 0.00 | 0.00 | 0.00 | 96 | 1012.2 |
| 20260506033317 | 54 | 344 | 0.0 | 0.0 | 0.00 | 0.00 | 0.00 | 95 | 1012.2 |
| 20260506032814 | 54 | 343 | 0.0 | 0.0 | 0.00 | 0.00 | 0.00 | 95 | 1012.0 |
| 20260506032311 | 54 | 344 | 0.0 | 0.0 | 0.00 | 0.00 | 0.00 | 95 | 1012.0 |
| 20260506031807 | 54 | 346 | 0.0 | 0.0 | 0.00 | 0.00 | 0.00 | 94 | 1012.0 |
| 20260506031305 | 55 | 347 | 0.0 | 0.0 | 0.00 | 0.00 | 0.00 | 94 | 1012.0 |
| 20260506030802 | 55 | 347 | 0.0 | 0.0 | 0.00 | 0.00 | 0.00 | 94 | 1011.7 |
| 20260506030300 | 55 | 346 | 0.0 | 0.0 | 0.00 | 0.00 | 0.00 | 94 | 1012.1 |
| 20260506025757 | 55 | 348 | 0.0 | 0.0 | 0.00 | 0.00 | 0.00 | 94 | 1011.9 |
| 20260506025253 | 55 | 347 | 0.0 | 0.0 | 0.00 | 0.00 | 0.00 | 94 | 1011.8 |
| 20260506024750 | 55 | 348 | 0.0 | 1.0 | 0.00 | 0.00 | 0.00 | 94 | 1011.6 |
| 20260506024247 | 55 | 348 | 0.0 | 0.0 | 0.00 | 0.00 | 0.00 | 93 | 1011.9 |
| 20260506023743 | 55 | 340 | 1.0 | 1.0 | 0.00 | 0.00 | 0.00 | 93 | 1011.6 |
| 20260506023240 | 55 | 349 | 0.0 | 0.0 | 0.00 | 0.00 | 0.00 | 93 | 1011.5 |
| 20260506022736 | 55 | 348 | 0.0 | 0.0 | 0.00 | 0.00 | 0.00 | 93 | 1011.5 |
| 20260506022235 | 55 | 330 | 1.0 | 1.0 | 0.00 | 0.00 | 0.00 | 92 | 1011.5 |
| 20260506021733 | 55 | 343 | 0.0 | 0.0 | 0.00 | 0.00 | 0.00 | 92 | 1011.3 |
| 20260506021229 | 55 | 348 | 0.0 | 0.0 | 0.00 | 0.00 | 0.00 | 92 | 1011.4 |
| 20260506020726 | 55 | 348 | 0.0 | 0.0 | 0.00 | 0.00 | 0.00 | 92 | 1011.5 |
| 20260506020224 | 55 | 345 | 1.0 | 1.0 | 0.00 | 0.00 | 0.00 | 91 | 1011.4 |
| 20260506015721 | 55 | 347 | 0.0 | 0.0 | 0.00 | 0.00 | 0.00 | 90 | 1011.3 |
| 20260506015218 | 56 | 338 | 0.0 | 0.0 | 0.00 | 0.00 | 0.00 | 90 | 1011.5 |
| 20260506014710 | 56 | 346 | 1.0 | 1.0 | 0.00 | 0.00 | 0.00 | 90 | 1011.4 |
| 20260506014206 | 56 | 348 | 0.0 | 0.0 | 0.00 | 0.00 | 0.00 | 89 | 1011.4 |
| 20260506013704 | 56 | 335 | 1.0 | 1.0 | 0.00 | 0.00 | 0.00 | 89 | 1011.3 |
| 20260506013201 | 56 | 339 | 1.0 | 1.0 | 0.00 | 0.00 | 0.00 | 89 | 1011.3 |
| 20260506012657 | 56 | 332 | 0.0 | 0.0 | 0.00 | 0.00 | 0.00 | 89 | 1011.3 |
| 20260506012154 | 56 | 347 | 0.0 | 0.0 | 0.00 | 0.00 | 0.00 | 88 | 1011.1 |
| 20260506011651 | 56 | 335 | 0.0 | 1.0 | 0.00 | 0.00 | 0.00 | 89 | 1011.2 |
| 20260506011147 | 56 | 339 | 0.0 | 0.0 | 0.00 | 0.00 | 0.00 | 89 | 1011.4 |
| 20260506010646 | 56 | 347 | 0.0 | 1.0 | 0.00 | 0.00 | 0.00 | 88 | 1011.4 |
| 20260506010143 | 56 | 349 | 0.0 | 0.0 | 0.00 | 0.00 | 0.00 | 88 | 1011.2 |
| 20260506005640 | 56 | 348 | 0.0 | 0.0 | 0.00 | 0.00 | 0.00 | 89 | 1011.4 |
| 20260506005137 | 56 | 349 | 0.0 | 0.0 | 0.00 | 0.00 | 0.00 | 89 | 1011.3 |
| 20260506004632 | 56 | 341 | 1.0 | 1.0 | 0.00 | 0.00 | 0.00 | 88 | 1011.3 |
| 20260506004129 | 56 | 345 | 0.0 | 0.0 | 0.00 | 0.00 | 0.00 | 88 | 1011.3 |
| 20260506003620 | 57 | 345 | 1.0 | 1.0 | 0.00 | 0.00 | 0.00 | 87 | 1011.2 |
| 20260506003116 | 57 | 346 | 0.0 | 1.0 | 0.00 | 0.00 | 0.00 | 88 | 1011.3 |
| 20260506002613 | 57 | 329 | 1.0 | 1.0 | 0.00 | 0.00 | 0.00 | 87 | 1011.2 |
| 20260506002108 | 57 | 351 | 1.0 | 1.0 | 0.00 | 0.00 | 0.00 | 87 | 1011.3 |
| 20260506001604 | 57 | 343 | 0.0 | 1.0 | 0.00 | 0.00 | 0.00 | 86 | 1011.2 |
| 20260506001102 | 57 | 336 | 0.0 | 0.0 | 0.00 | 0.00 | 0.00 | 87 | 1011.4 |
| 20260506000559 | 57 | 338 | 0.0 | 0.0 | 0.00 | 0.00 | 0.00 | 86 | 1011.4 |
| 20260506000056 | 57 | 340 | 1.0 | 1.0 | 0.00 | 0.00 | 0.00 | 86 | 1011.3 |
| 20260505235555 | 57 | 347 | 0.0 | 0.0 | 0.00 | 0.00 | 0.00 | 86 | 1011.3 |
| 20260505235051 | 57 | 339 | 1.0 | 1.0 | 0.00 | 0.00 | 0.00 | 86 | 1011.1 |
| 20260505234548 | 57 | 346 | 2.0 | 2.0 | 0.00 | 0.00 | 0.00 | 86 | 1011.3 |
| 20260505234045 | 57 | 347 | 1.0 | 1.0 | 0.00 | 0.00 | 0.00 | 87 | 1011.3 |
| 20260505233543 | 57 | 345 | 1.0 | 1.0 | 0.00 | 0.00 | 0.00 | 86 | 1011.4 |
| 20260505233040 | 57 | 330 | 1.0 | 2.0 | 0.00 | 0.00 | 0.00 | 87 | 1011.3 |
| 20260505232538 | 57 | 344 | 1.0 | 1.0 | 0.00 | 0.00 | 0.00 | 87 | 1011.7 |
| 20260505232035 | 57 | 349 | 0.0 | 0.0 | 0.00 | 0.00 | 0.00 | 87 | 1011.7 |
| 20260505231532 | 57 | 339 | 1.0 | 1.0 | 0.00 | 0.00 | 0.00 | 87 | 1011.6 |